This demonstration page uses our WeatherBlox Daily Observations layout. Learn more.

Left ArrowRight Arrow

44.8408, -93.29828

Hourly Observations for March 31, 2018

Temp ( °F °C ) Dew Point ( °F °C ) Humidity (%) Winds ( mph kmh ) Pressure ( in mb ) Visibility ( mi km ) Precip ( " mm )
12:02 am 00:02 Cloudy with Light Snow 30 -1.1 29 -1.7 96 96 E 9 15 30.00 1016 1 2 0.01 0.25
12:27 am 00:27 Cloudy with Light Snow 30 -1.1 30 -1.1 100 100 ESE 10 17 30.00 1016 1 2 0.03 0.76
12:51 am 00:51 Cloudy with Light Snow 30 -1 30 -1 100 100 ESE 13 20 29.97 1015 1 2 0.08 2.03
12:53 am 00:53 Cloudy with Light Snow 30 -1.1 30 -1.1 100 100 ESE 10 17 29.93 1014 1 2 0.09 2.29
1:20 am 01:20 Cloudy with Light Snow 31 -0.6 31 -0.6 100 100 ESE 12 19 29.94 1014 2 3 0.02 0.51
1:25 am 01:25 Cloudy with Light Snow 31 -0.6 31 -0.6 100 100 E 10 17 29.94 1014 3 5 0.02 0.51
1:33 am 01:33 Cloudy with Light Snow 31 -0.6 31 -0.6 100 100 E 12 19 29.91 1013 4 6 0.02 0.51
1:53 am 01:53 Cloudy with Light Snow 32 0 31 -0.6 96 96 E 12 19 29.85 1011 5 8 0.03 0.76
2:14 am 02:14 Cloudy with Light Snow 32 0 32 0 100 100 ESE 16 26 29.85 1011 4 6 0.00 0.03
2:41 am 02:41 Cloudy with Light Snow 33 0.6 32 0 96 96 SE 16 26 29.83 1010 4 6 0.00 0.03
2:53 am 02:53 Cloudy with Light Snow 33 0.6 33 0.6 100 100 SE 18 30 29.76 1008 5 8 0.00 0.03
3:09 am 03:09 Cloudy with Mist and Fog 34 1.1 33 0.6 97 97 ESE 17 28 29.80 1009 6 10 0.01 0.25
3:53 am 03:53 Cloudy with Light Rain 33 0.6 33 0.6 100 100 SE 9 15 29.72 1006 5 8 0.02 0.51
4:53 am 04:53 Cloudy 33 0.6 33 0.6 100 100 N 13 20 29.73 1007 7 11 0.02 0.51
5:04 am 05:04 Cloudy with Light Snow 33 0.6 33 0.6 100 100 N 12 19 29.77 1008 3 5 0.01 0.25
5:20 am 05:20 Cloudy with Light Snow 32 0 32 0 100 100 N 14 22 29.77 1008 3 4 0.02 0.51
5:33 am 05:33 Cloudy with Light Snow 30 -1.1 30 -1.1 100 100 N 18 30 29.77 1008 2 3 0.02 0.51
5:38 am 05:38 Cloudy with Light Snow 30 -1.1 29 -1.7 96 96 N 14 22 29.77 1008 2 3 0.02 0.51
5:53 am 05:53 Cloudy with Light Snow 29 -1.7 28 -2.2 96 96 N 14 22 29.75 1008 2 2 0.03 0.76
6:06 am 06:06 Cloudy with Light Snow 28 -2.2 27 -2.8 96 96 N 18 30 29.80 1009 3 5 0.00 0.03
6:37 am 06:37 Cloudy with Mist and Fog 28 -2.2 26 -3.3 92 92 N 22 35 29.85 1011 5 8 0.00 0.03
6:53 am 06:53 Cloudy 27 -2.8 25 -3.9 92 92 N 20 31 29.83 1010 7 11 0.00 0.03
7:23 am 07:23 Cloudy 26 -3.3 24 -4.4 92 92 N 23 37 29.91 1013 9 14 0.00 0.00
7:53 am 07:53 Cloudy 26 -3.3 23 -5 88 88 N 18 30 29.92 1013 10 16 0.00 0.00
8:53 am 08:53 Cloudy with Light Snow 25 -3.9 21 -6.1 85 85 N 18 30 29.99 1016 5 8 0.00 0.03
9:10 am 09:10 Cloudy 25 -3.9 21 -6.1 85 85 N 15 24 30.03 1017 7 11 0.00 0.03
9:18 am 09:18 Cloudy 25 -3.9 21 -6.1 85 85 N 21 33 30.03 1017 9 14 0.00 0.03
9:53 am 09:53 Cloudy 24 -4.4 20 -6.7 84 84 NNW 15 24 30.04 1017 9 14 0.00 0.03
10:53 am 10:53 Mostly Cloudy 25 -3.9 18 -7.8 75 75 N 22 35 30.08 1019 10 16 0.00 0.00
11:35 am 11:35 Partly Cloudy 24 -4.4 16 -8.9 71 71 NNW 21 33 30.15 1021 10 16 0.00 0.00
11:53 am 11:53 Mostly Sunny 24 -4.4 15 -9.4 68 68 NNW 22 35 30.13 1020 10 16 0.00 0.00
12:53 pm 12:53 Mostly Sunny 26 -3.3 15 -9.4 63 63 NW 23 37 30.15 1021 10 16 0.00 0.00
1:53 pm 13:53 Mostly Sunny 26 -3.3 13 -10.6 57 57 NW 24 39 30.17 1022 10 16 0.00 0.00
2:53 pm 14:53 Mostly Sunny 26 -3.3 12 -11.1 55 55 WNW 20 31 30.19 1022 10 16 0.00 0.00
3:53 pm 15:53 Mostly Sunny 26 -3.3 9 -12.8 48 48 NW 20 31 30.20 1023 10 16 0.00 0.00
4:53 pm 16:53 Mostly Sunny 26 -3.3 9 -12.8 48 48 WNW 18 30 30.21 1023 10 16 0.00 0.00
5:53 pm 17:53 Partly Cloudy 25 -3.9 11 -11.7 55 55 WNW 21 33 30.22 1023 10 16 0.00 0.00
6:53 pm 18:53 Mostly Sunny 22 -5.6 7 -13.9 52 52 WNW 21 33 30.25 1024 10 16 0.00 0.00
7:53 pm 19:53 Clear 19 -7.2 5 -15 54 54 WNW 23 37 30.27 1025 10 16 0.00 0.00
8:53 pm 20:53 Clear 16 -8.9 2 -16.7 54 54 WNW 14 22 30.31 1026 10 16 0.00 0.00
9:53 pm 21:53 Clear 16 -8.9 4 -15.6 59 59 WNW 16 26 30.33 1027 10 16 0.00 0.00
10:53 pm 22:53 Clear 14 -10 4 -15.6 64 64 WNW 16 26 30.35 1028 10 16 0.00 0.00
11:53 pm 23:53 Clear 13 -10.6 4 -15.6 67 67 WNW 15 24 30.35 1028 10 16 0.00 0.00

Powered by AerisWeather